Regional Weather Roundup
Issued by NWS

Home | Current Version | Previous Version | Graphics & Text | Print | Product List | Glossary Off
Versions: 1 2 3 4 5 6 7 8 9 10 11 12 13 14 15 16 17 18 19 20 21 22 23 24 25 26 27 28 29 30 31 32 33 34 35 36 37 38 39 40 41 42 43 44 45 46 47 48 49 50

000
ASUS43 KFSD 250510
RWRSD

WEATHER ROUNDUP FOR SOUTH DAKOTA
NATIONAL WEATHER SERVICE SIOUX FALLS SD
1200 AM CDT SAT MAR 25 2017

NOTE: "FAIR" INDICATES FEW OR NO CLOUDS BELOW 12,000 FEET WITH NO
SIGNIFICANT WEATHER AND/OR OBSTRUCTIONS TO VISIBILITY.


SDZ001>005-009-010-012>017-250600-
NORTHWEST AND NORTH CENTRAL SOUTH DAKOTA

CITY           SKY/WX    TMP DP  RH WIND       PRES   REMARKS
BUFFALO          N/A     43  34  70 SE20      29.91F
FAITH            N/A     39  33  79 SE17      30.07F
MOBRIDGE       CLEAR     36  29  75 SE12      30.14R
$$

SDZ012>016-024>037-041>051-057-063-072>074-250600-
SOUTHWEST AND SOUTH CENTRAL SOUTH DAKOTA

CITY           SKY/WX    TMP DP  RH WIND       PRES   REMARKS
RAPID CTY ARPT CLEAR     39  29  67 S10       30.07S
PIERRE         CLEAR     38  32  79 SE8       30.15R
CUSTER         CLEAR     36  25  64 VRB6      30.08F
ELLSWORTH AFB  CLEAR     40  30  67 S9        30.05F
PHILIP         CLEAR     36  29  75 E7        30.12R
PINE RIDGE     CLEAR     43  31  62 N5        30.10S
SPEARFISH      FAIR      46  30  53 SE8G18    29.99F
WINNER         FAIR      32  29  88 SE7       30.13F WCI  26
$$

SDZ004>011-016>023-039-040-250600-
NORTHEAST SOUTH DAKOTA

CITY           SKY/WX    TMP DP  RH WIND       PRES   REMARKS
ABERDEEN       CLEAR     26  23  88 NE6       30.21R WCI  19
WATERTOWN      CLOUDY    34  31  88 NE8       30.16S WCI  27
BROOKINGS      CLOUDY    35  32  88 E8        30.13S WCI  29
SISSETON         N/A     31  30  96 N3        30.19S
$$

SDZ017-020-022-023-036>040-048>070-250600-
SOUTHEAST SOUTH DAKOTA

CITY           SKY/WX    TMP DP  RH WIND       PRES   REMARKS
SIOUX FALLS    CLOUDY    37  34  89 NE15      30.13S
HURON          CLOUDY    38  34  85 NE6       30.17S
CHAMBERLAIN    CLOUDY    33  32  98 CALM      30.15F
MITCHELL       CLOUDY    40  35  83 E8        30.15F
YANKTON        CLOUDY    37  34  87 NE13      30.11F
$$

ABBREVIATIONS USED IN REMARKS
   TC - TEMPERATURE IN CELSIUS
  WCI - WIND CHILL INDEX
   HX - HEAT INDEX
  VSB - VISIBILITY




USA.gov is the U.S. government's official web portal to all federal, state and local government web resources and services.